Destin, Florida, United States (32540)
Lat: 30.39N, Lon: 86.5W
Wx Zone: FLZ006
Local Info
Past Weather Observations for Saturday, August 29, 2015

NOTE: This archive is for the closest National Weather Service station to Destin. Information may differ from the station used for current weather conditions.

Click here for Long-term Archive

Time Weather Temperature Dewpoint Humidity Pressure Winds Precip Visibility
23:53
Clear
73°F / 23°C 70°F / 21°C 89% 30.04 in
(1017 mb)
ENE 3.5 mph
(ENE 6 kph)
- 10SM
22:53
Clear
75°F / 24°C 70°F / 21°C 83% 30.06 in
(1018 mb)
E 4.6 mph
(E 7 kph)
- 10SM
21:53
Clear
75°F / 24°C 70°F / 21°C 83% 30.06 in
(1018 mb)
Calm - 10SM
20:53
Clear
75°F / 24°C 70°F / 21°C 83% 30.06 in
(1018 mb)
NE 6.9 mph
(NE 11 kph)
- 10SM
19:53
Clear
77°F / 25°C 70°F / 21°C 79% 30.06 in
(1018 mb)
ENE 5.8 mph
(ENE 9 kph)
- 10SM
18:53
Clear
77°F / 25°C 72°F / 22°C 83% 30.04 in
(1017 mb)
ENE 8.1 mph
(ENE 13 kph)
- 10SM
17:53
Clear
82°F / 28°C 73°F / 23°C 74% 30.04 in
(1017 mb)
SE 3.5 mph
(SE 6 kph)
- 10SM
16:53
Clear
82°F / 28°C 73°F / 23°C 74% 30.04 in
(1017 mb)
SSE 5.8 mph
(SSE 9 kph)
- 10SM
15:53
Clear
84°F / 29°C 73°F / 23°C 70% 30.04 in
(1017 mb)
SSE 6.9 mph
(SSE 11 kph)
- 10SM
14:53
Clear
84°F / 29°C 73°F / 23°C 70% 30.04 in
(1017 mb)
SSE 9.2 mph
(SSE 15 kph)
- 10SM
13:53
Clear
84°F / 29°C 73°F / 23°C 70% 30.04 in
(1017 mb)
S 6.9 mph
(S 11 kph)
- 10SM
12:53
Clear
84°F / 29°C 73°F / 23°C 70% 30.09 in
(1019 mb)
SSE 6.9 mph
(SSE 11 kph)
- 10SM
11:53
Clear
84°F / 29°C 73°F / 23°C 70% 30.09 in
(1019 mb)
Variable 3.5 mph
(Variable 6 kph)
- 10SM
10:53
Clear
82°F / 28°C 73°F / 23°C 74% 30.12 in
(1020 mb)
NNE 5.8 mph
(NNE 9 kph)
- 10SM
09:53
Clear
81°F / 27°C 73°F / 23°C 79% 30.09 in
(1019 mb)
ENE 10.4 mph
(ENE 17 kph)
- 10SM
08:53
Clear
79°F / 26°C 70°F / 21°C 74% 30.09 in
(1019 mb)
E 4.6 mph
(E 7 kph)
0.03 in
(0.76 mm)
10SM
08:35
Partly Cloudy
77°F / 25°C 68°F / 20°C 74% 30.12 in
(1020 mb)
S 5.8 mph
(S 9 kph)
0.03 in
(0.76 mm)
10SM
08:04
Overcast
Heavy Rain
75°F / 24°C 73°F / 23°C 94% 30.12 in
(1020 mb)
Variable 3.5 mph
(Variable 6 kph)
0.03 in
(0.76 mm)
4SM
07:53
Overcast
Rain
77°F / 25°C 72°F / 22°C 83% 30.12 in
(1020 mb)
Calm 0.00 in
(0.00 mm)
9SM
07:32
Overcast
77°F / 25°C 72°F / 22°C 83% 30.12 in
(1020 mb)
N 3.5 mph
(N 6 kph)
- 10SM
06:53
Mostly Cloudy
77°F / 25°C 72°F / 22°C 83% 30.09 in
(1019 mb)
Calm - 10SM
06:44
Partly Cloudy
77°F / 25°C 72°F / 22°C 83% 30.09 in
(1019 mb)
NE 4.6 mph
(NE 7 kph)
- 10SM
06:11
Mostly Cloudy
75°F / 24°C 72°F / 22°C 89% 30.09 in
(1019 mb)
N 5.8 mph
(N 9 kph)
- 10SM
05:53
Partly Cloudy
75°F / 24°C 73°F / 23°C 94% 30.09 in
(1019 mb)
Variable 5.8 mph
(Variable 9 kph)
- 10SM
04:53
Partly Cloudy
77°F / 25°C 73°F / 23°C 89% 30.04 in
(1017 mb)
E 8.1 mph
(E 13 kph)
- 10SM
03:53
Mostly Cloudy
79°F / 26°C 73°F / 23°C 84% 30.04 in
(1017 mb)
E 9.2 mph
(E 15 kph)
- 10SM
02:53
Clear
81°F / 27°C 75°F / 24°C 84% 30.04 in
(1017 mb)
SE 11.5 mph
(SE 19 kph)
- 10SM
01:53
Clear
82°F / 28°C 73°F / 23°C 74% 30.01 in
(1016 mb)
SE 11.5 mph
(SE 19 kph)
- 10SM
00:53
Overcast
82°F / 28°C 73°F / 23°C 74% 30.04 in
(1017 mb)
SE 18.4 mph
(SE 30 kph)
- 10SM
Time Weather Temperature Dewpoint Humidity Pressure Winds Precip Visibility


Weather for websites

WeatherForYou.com, LLC is not responsible for any damages or problems caused by this service. Current weather conditions are obtained from the closest station including government and personal stations which may have varying degrees of accuracy. Weather forecasts are derived from the NOAA NDFD. Like all things, this site belongs to Jesus Christ... He just trusts us to maintain it. If you have any questions or comments email webmaster@weatherforyou.com

Copyright © 2015, WeatherForYou.com LLC. All rights reserved.